,,PA_Meas_PMT16A,,PR_Meas_QMR101_102,,RH_Meas_QMH101,,SR_Meas_QMS101,,TA_Meas_QMH101,,GenWind,,GenWind,
time,status,PA,status,PR,status,RH,status,SR,status,TA,status,DirAvg,status,SpdAvg,
2013-11-30, 06:55:04,VALID,916.537,VALID,0,VALID,97.4654,VALID,43.6211,VALID,19.3128,VALID,69,VALID,0,
2013-11-30, 06:56:04,VALID,916.547,VALID,0,VALID,97.4654,VALID,45.6625,VALID,19.3323,VALID,68,VALID,0,
2013-11-30, 06:57:04,VALID,916.563,VALID,0.2,VALID,97.4501,VALID,47.5964,VALID,19.3533,VALID,69,VALID,0,
2013-11-30, 06:58:04,VALID,916.559,VALID,0,VALID,97.473,VALID,49.9601,VALID,19.3518,VALID,69,VALID,0,
2013-11-30, 06:59:04,VALID,916.583,VALID,0,VALID,97.4425,VALID,52.4313,VALID,19.3908,VALID,69,VALID,0,
2013-11-30, 07:00:04,VALID,916.612,VALID,0,VALID,97.4577,VALID,54.6875,VALID,19.4103,VALID,69,VALID,0,
2013-11-30, 07:01:04,VALID,916.598,VALID,0,VALID,97.4349,VALID,56.9438,VALID,19.4508,VALID,69,VALID,0,
2013-11-30, 07:02:04,VALID,916.647,VALID,0,VALID,97.4501,VALID,59.5224,VALID,19.4703,VALID,69,VALID,0,
2013-11-30, 07:03:04,VALID,916.632,VALID,0,VALID,97.4425,VALID,62.2084,VALID,19.4298,VALID,68,VALID,0,
2013-11-30, 07:04:04,VALID,916.657,VALID,0,VALID,97.473,VALID,64.6796,VALID,19.4298,VALID,69,VALID,0,
2013-11-30, 07:05:04,VALID,916.685,VALID,0,VALID,97.4577,VALID,67.473,VALID,19.4493,VALID,69,VALID,0,
2013-11-30, 07:06:04,VALID,916.7,VALID,0,VALID,97.4501,VALID,70.8037,VALID,19.4898,VALID,69,VALID,0,
2013-11-30, 07:07:04,VALID,916.716,VALID,0,VALID,97.4349,VALID,73.06,VALID,19.5093,VALID,69,VALID,0,
2013-11-30, 07:08:04,VALID,916.735,VALID,0,VALID,97.473,VALID,74.1344,VALID,19.4313,VALID,16,VALID,0,
2013-11-30, 07:09:04,VALID,916.747,VALID,0,VALID,97.4654,VALID,77.4651,VALID,19.4313,VALID,3,VALID,0,
2013-11-30, 07:10:04,VALID,916.756,VALID,0,VALID,97.4654,VALID,81.1181,VALID,19.4313,VALID,22,VALID,0,
2013-11-30, 07:11:04,VALID,916.785,VALID,0,VALID,97.4577,VALID,84.986,VALID,19.4298,VALID,33,VALID,0,
2013-11-30, 07:12:04,VALID,916.81,VALID,0,VALID,97.4501,VALID,88.1017,VALID,19.4508,VALID,25,VALID,0,
2013-11-30, 07:13:04,VALID,916.848,VALID,0,VALID,97.4425,VALID,91.9696,VALID,19.4493,VALID,33,VALID,0,
2013-11-30, 07:14:04,VALID,916.848,VALID,0,VALID,97.4349,VALID,95.4077,VALID,19.4898,VALID,356,VALID,0,
2013-11-30, 07:15:04,VALID,916.861,VALID,0,VALID,97.4349,VALID,99.2756,VALID,19.5288,VALID,18,VALID,0,
2013-11-30, 07:16:04,VALID,916.884,VALID,0,VALID,97.4273,VALID,102.606,VALID,19.5273,VALID,17,VALID,0,
2013-11-30, 07:17:04,VALID,916.915,VALID,0,VALID,97.4349,VALID,104.863,VALID,19.5273,VALID,14,VALID,0,
2013-11-30, 07:18:04,VALID,916.949,VALID,0,VALID,97.4501,VALID,107.011,VALID,19.5288,VALID,13,VALID,0,
2013-11-30, 07:19:04,VALID,916.953,VALID,0,VALID,97.4349,VALID,108.086,VALID,19.5273,VALID,13,VALID,0,
2013-11-30, 07:20:04,VALID,916.975,VALID,0,VALID,97.4501,VALID,112.169,VALID,19.5078,VALID,358,VALID,0,
2013-11-30, 07:21:04,VALID,916.991,VALID,0,VALID,97.4425,VALID,116.789,VALID,19.5483,VALID,358,VALID,0,
2013-11-30, 07:22:04,VALID,917.018,VALID,0,VALID,97.4273,VALID,122.053,VALID,19.5678,VALID,45,VALID,0,
2013-11-30, 07:23:04,VALID,917.037,VALID,0,VALID,97.4501,VALID,124.524,VALID,19.5273,VALID,59,VALID,0,
2013-11-30, 07:24:04,VALID,917.083,VALID,0,VALID,97.4196,VALID,128.607,VALID,19.6068,VALID,59,VALID,0,
2013-11-30, 07:25:04,VALID,917.092,VALID,0,VALID,97.4044,VALID,130.756,VALID,19.7043,VALID,59,VALID,0,
2013-11-30, 07:26:04,VALID,917.106,VALID,0,VALID,97.4196,VALID,133.657,VALID,19.7628,VALID,59,VALID,0,
2013-11-30, 07:27:04,VALID,917.138,VALID,0,VALID,97.3968,VALID,137.095,VALID,19.7028,VALID,24,VALID,0,
2013-11-30, 07:28:04,VALID,917.138,VALID,0,VALID,97.4273,VALID,137.525,VALID,19.7238,VALID,24,VALID,0,
2013-11-30, 07:29:04,VALID,917.133,VALID,0,VALID,97.3891,VALID,139.673,VALID,19.7238,VALID,24,VALID,0,
2013-11-30, 07:30:04,VALID,917.151,VALID,0,VALID,97.3891,VALID,141.178,VALID,19.7418,VALID,25,VALID,0,
2013-11-30, 07:31:04,VALID,917.167,VALID,0,VALID,97.3968,VALID,139.566,VALID,19.8408,VALID,26,VALID,0,
2013-11-30, 07:32:04,VALID,917.177,VALID,0,VALID,97.3739,VALID,138.707,VALID,19.8978,VALID,26,VALID,0,
2013-11-30, 07:33:04,VALID,917.191,VALID,0,VALID,97.3891,VALID,136.235,VALID,19.8978,VALID,31,VALID,0,
2013-11-30, 07:34:04,VALID,917.211,VALID,0,VALID,97.3815,VALID,134.839,VALID,19.8978,VALID,31,VALID,0,
2013-11-30, 07:35:04,VALID,917.267,VALID,0,VALID,97.3815,VALID,131.83,VALID,19.8993,VALID,31,VALID,0,
2013-11-30, 07:36:04,VALID,917.288,VALID,0,VALID,97.3663,VALID,130.756,VALID,19.9188,VALID,31,VALID,0,
2013-11-30, 07:37:04,VALID,917.309,VALID,0,VALID,97.3586,VALID,128.714,VALID,19.9563,VALID,31,VALID,0,
2013-11-30, 07:38:04,VALID,917.353,VALID,0,VALID,97.351,VALID,126.673,VALID,20.0538,VALID,31,VALID,0,
2013-11-30, 07:39:04,VALID,917.356,VALID,0,VALID,97.3358,VALID,122.268,VALID,20.1529,VALID,31,VALID,0,
2013-11-30, 07:40:04,VALID,917.401,VALID,0,VALID,97.3129,VALID,116.144,VALID,20.1724,VALID,25,VALID,0,
2013-11-30, 07:41:04,VALID,917.45,VALID,0,VALID,97.3663,VALID,113.243,VALID,20.0148,VALID,23,VALID,0,
2013-11-30, 07:42:04,VALID,917.463,VALID,0,VALID,97.3739,VALID,110.557,VALID,19.9368,VALID,23,VALID,0,
2013-11-30, 07:43:04,VALID,917.498,VALID,0,VALID,97.3663,VALID,107.763,VALID,19.9563,VALID,23,VALID,0,
2013-11-30, 07:44:04,VALID,917.533,VALID,0,VALID,97.3739,VALID,106.367,VALID,20.0148,VALID,23,VALID,0,
2013-11-30, 07:45:04,VALID,917.539,VALID,0,VALID,97.3663,VALID,104.97,VALID,19.9953,VALID,23,VALID,0,
2013-11-30, 07:46:04,VALID,917.544,VALID,0,VALID,97.3586,VALID,104.648,VALID,20.0538,VALID,23,VALID,0,
2013-11-30, 07:47:04,VALID,917.58,VALID,0,VALID,97.3663,VALID,105.615,VALID,19.9938,VALID,23,VALID,0,
2013-11-30, 07:48:04,VALID,917.579,VALID,0,VALID,97.351,VALID,107.978,VALID,20.0358,VALID,23,VALID,0,
2013-11-30, 07:49:04,VALID,917.584,VALID,0,VALID,97.3586,VALID,111.309,VALID,20.0733,VALID,23,VALID,0,
2013-11-30, 07:50:04,VALID,917.599,VALID,0,VALID,97.3281,VALID,114.64,VALID,20.1318,VALID,23,VALID,0,
2013-11-30, 07:51:04,VALID,917.631,VALID,0,VALID,97.3358,VALID,116.681,VALID,20.2114,VALID,23,VALID,0,
2013-11-30, 07:52:04,VALID,917.619,VALID,0,VALID,97.3205,VALID,117.433,VALID,20.2098,VALID,23,VALID,0,
2013-11-30, 07:53:04,VALID,917.652,VALID,0,VALID,97.3281,VALID,118.508,VALID,20.2098,VALID,23,VALID,0,
2013-11-30, 07:54:04,VALID,917.62,VALID,0,VALID,97.3129,VALID,118.615,VALID,20.2098,VALID,23,VALID,0,
2013-11-30, 07:55:04,VALID,917.662,VALID,0,VALID,97.3205,VALID,119.797,VALID,20.2293,VALID,23,VALID,0,
2013-11-30, 07:56:04,VALID,917.669,VALID,0,VALID,97.3281,VALID,124.309,VALID,20.2293,VALID,23,VALID,0,
2013-11-30, 07:57:04,VALID,917.698,VALID,0,VALID,97.29,VALID,126.995,VALID,20.3074,VALID,23,VALID,0,
2013-11-30, 07:58:04,VALID,917.701,VALID,0,VALID,97.29,VALID,126.136,VALID,20.3269,VALID,23,VALID,0,
2013-11-30, 07:59:04,VALID,917.734,VALID,0,VALID,97.2977,VALID,129.037,VALID,20.3854,VALID,23,VALID,0,
2013-11-30, 08:00:04,VALID,917.756,VALID,0,VALID,97.3205,VALID,133.012,VALID,20.3074,VALID,23,VALID,0,
2013-11-30, 08:01:04,VALID,917.73,VALID,0,VALID,97.2977,VALID,138.921,VALID,20.3464,VALID,23,VALID,0,
2013-11-30, 08:02:04,VALID,917.756,VALID,0,VALID,97.29,VALID,148.376,VALID,20.4049,VALID,23,VALID,0,
2013-11-30, 08:03:04,VALID,917.755,VALID,0,VALID,97.3053,VALID,159.872,VALID,20.3464,VALID,23,VALID,0,
2013-11-30, 08:04:04,VALID,917.763,VALID,0,VALID,97.2977,VALID,164.815,VALID,20.3659,VALID,23,VALID,0,
2013-11-30, 08:05:04,VALID,917.811,VALID,0,VALID,97.2977,VALID,174.055,VALID,20.3074,VALID,23,VALID,0,
2013-11-30, 08:06:04,VALID,917.804,VALID,0,VALID,97.3358,VALID,174.807,VALID,20.1693,VALID,24,VALID,0,
2013-11-30, 08:07:04,VALID,917.831,VALID,0,VALID,97.351,VALID,177.815,VALID,20.1303,VALID,24,VALID,0,
2013-11-30, 08:08:04,VALID,917.852,VALID,0,VALID,97.3281,VALID,178.352,VALID,20.2293,VALID,23,VALID,0,
2013-11-30, 08:09:04,VALID,917.876,VALID,0,VALID,97.3129,VALID,180.931,VALID,20.3074,VALID,23,VALID,0,
2013-11-30, 08:10:04,VALID,917.877,VALID,0,VALID,97.29,VALID,180.931,VALID,20.4244,VALID,23,VALID,0,
2013-11-30, 08:11:04,VALID,917.93,VALID,0,VALID,97.2977,VALID,180.501,VALID,20.4049,VALID,23,VALID,0,
2013-11-30, 08:12:04,VALID,917.938,VALID,0,VALID,97.3053,VALID,178.997,VALID,20.3643,VALID,23,VALID,0,
2013-11-30, 08:13:04,VALID,917.974,VALID,0,VALID,97.2977,VALID,177.385,VALID,20.3643,VALID,23,VALID,0,
2013-11-30, 08:14:04,VALID,918.008,VALID,0,VALID,97.3053,VALID,176.203,VALID,20.3269,VALID,357,VALID,0,
2013-11-30, 08:15:04,VALID,918.028,VALID,0,VALID,97.2748,VALID,174.377,VALID,20.3838,VALID,345,VALID,0,
2013-11-30, 08:16:04,VALID,918.013,VALID,0,VALID,97.2672,VALID,172.228,VALID,20.4829,VALID,345,VALID,0,
2013-11-30, 08:17:04,VALID,918.034,VALID,0,VALID,97.2748,VALID,169.972,VALID,20.5204,VALID,345,VALID,0,
2013-11-30, 08:18:04,VALID,918.033,VALID,0,VALID,97.2595,VALID,166.749,VALID,20.5204,VALID,345,VALID,0,
2013-11-30, 08:19:04,VALID,918.049,VALID,0,VALID,97.2824,VALID,163.74,VALID,20.5024,VALID,345,VALID,0,
2013-11-30, 08:20:04,VALID,918.054,VALID,0,VALID,97.2748,VALID,162.666,VALID,20.4618,INVALID,360,VALID,0,
2013-11-30, 08:21:04,VALID,918.066,VALID,0,VALID,97.2824,VALID,162.988,VALID,20.4813,VALID,345,VALID,0,
2013-11-30, 08:22:04,VALID,918.066,VALID,0,VALID,97.2748,VALID,163.418,VALID,20.5594,VALID,200,VALID,0,
2013-11-30, 08:23:04,VALID,918.079,VALID,0,VALID,97.2519,VALID,165.997,VALID,20.5984,VALID,196,VALID,0,
2013-11-30, 08:24:04,VALID,918.055,VALID,0,VALID,97.2672,VALID,168.683,VALID,20.5804,VALID,186,VALID,0,
2013-11-30, 08:25:04,VALID,918.061,VALID,0,VALID,97.2748,VALID,170.724,VALID,20.5414,VALID,189,VALID,0,
2013-11-30, 08:26:04,VALID,918.062,VALID,0,VALID,97.2672,VALID,171.476,VALID,20.5609,VALID,189,VALID,0,
2013-11-30, 08:27:04,VALID,918.057,VALID,0,VALID,97.2748,VALID,170.831,VALID,20.5219,VALID,189,VALID,0,
2013-11-30, 08:28:04,VALID,918.044,VALID,0,VALID,97.29,VALID,166.426,VALID,20.5414,VALID,191,VALID,0,
2013-11-30, 08:29:04,VALID,918.069,VALID,0,VALID,97.29,VALID,161.054,VALID,20.5024,VALID,197,VALID,0,
2013-11-30, 08:30:04,VALID,918.081,VALID,0,VALID,97.2595,VALID,155.575,VALID,20.5609,VALID,212,VALID,0,
2013-11-30, 08:31:04,VALID,918.095,VALID,0,VALID,97.2824,VALID,150.847,VALID,20.5609,VALID,220,VALID,0,
2013-11-30, 08:32:04,VALID,918.127,VALID,0,VALID,97.2672,VALID,147.087,VALID,20.6194,VALID,229,VALID,0,
2013-11-30, 08:33:04,VALID,918.129,VALID,0,VALID,97.2595,VALID,144.723,VALID,20.5594,VALID,194,VALID,0,
2013-11-30, 08:34:04,VALID,918.164,VALID,0,VALID,97.2748,VALID,143.326,VALID,20.5609,VALID,194,VALID,0,
2013-11-30, 08:35:04,VALID,918.157,VALID,0,VALID,97.2748,VALID,141.607,VALID,20.5804,VALID,195,VALID,0,
2013-11-30, 08:36:04,VALID,918.161,VALID,0,VALID,97.2519,VALID,139.136,VALID,20.639,VALID,194,VALID,0,
2013-11-30, 08:37:04,VALID,918.173,VALID,0,VALID,97.2519,VALID,140.103,VALID,20.6374,VALID,230,VALID,0,
2013-11-30, 08:38:04,VALID,918.168,VALID,0,VALID,97.229,VALID,146.013,VALID,20.6975,VALID,210,VALID,0,
2013-11-30, 08:39:04,VALID,918.185,VALID,0,VALID,97.2977,VALID,153.856,VALID,20.5789,VALID,226,VALID,0,
2013-11-30, 08:40:04,VALID,918.193,VALID,0,VALID,97.2519,VALID,164.385,VALID,20.639,VALID,213,VALID,0,
2013-11-30, 08:41:04,VALID,918.176,VALID,0,VALID,97.2595,VALID,179.749,VALID,20.6194,VALID,237,VALID,0,
2013-11-30, 08:42:04,VALID,918.193,VALID,0,VALID,97.2519,VALID,198.121,VALID,20.6374,VALID,237,VALID,0,
2013-11-30, 08:43:04,VALID,918.203,VALID,0,VALID,97.2519,VALID,214.882,VALID,20.717,VALID,227,VALID,0,
2013-11-30, 08:44:04,VALID,918.159,VALID,0,VALID,97.229,VALID,232.395,VALID,20.756,VALID,231,VALID,0,
2013-11-30, 08:45:04,VALID,918.176,VALID,0,VALID,97.229,VALID,244.644,VALID,20.795,VALID,231,VALID,0,
2013-11-30, 08:46:04,VALID,918.157,VALID,0,VALID,97.229,VALID,253.454,VALID,20.6959,VALID,231,VALID,0,
2013-11-30, 08:47:04,VALID,918.162,VALID,0,VALID,97.2367,VALID,261.404,VALID,20.7755,VALID,231,VALID,0,
2013-11-30, 08:48:04,VALID,918.151,VALID,0,VALID,97.2138,VALID,271.181,VALID,20.834,VALID,231,VALID,0,
2013-11-30, 08:49:04,VALID,918.165,VALID,0,VALID,97.2214,VALID,278.917,VALID,20.7739,VALID,235,VALID,0,
2013-11-30, 08:50:04,VALID,918.151,VALID,0,VALID,97.2367,VALID,284.182,VALID,20.795,VALID,237,VALID,0,
2013-11-30, 08:51:04,VALID,918.162,VALID,0,VALID,97.2138,VALID,286.008,VALID,20.873,VALID,237,VALID,0,
2013-11-30, 08:52:04,VALID,918.208,VALID,0,VALID,97.2519,VALID,286.223,VALID,20.7154,VALID,237,VALID,0,
2013-11-30, 08:53:04,VALID,918.209,VALID,0,VALID,97.2443,VALID,288.802,VALID,20.6975,VALID,237,VALID,0,
2013-11-30, 08:54:04,VALID,918.215,VALID,0,VALID,97.2672,VALID,294.496,VALID,20.6764,VALID,237,VALID,0,
2013-11-30, 08:55:04,VALID,918.216,VALID,0,VALID,97.2367,VALID,301.587,VALID,20.8145,VALID,237,VALID,0,
2013-11-30, 08:56:04,VALID,918.273,VALID,0,VALID,97.2367,VALID,308.786,VALID,20.7739,VALID,237,VALID,0,
2013-11-30, 08:57:04,VALID,918.263,VALID,0,VALID,97.229,VALID,314.91,VALID,20.8519,VALID,239,VALID,0,
2013-11-30, 08:58:04,VALID,918.237,VALID,0,VALID,97.1833,VALID,320.819,VALID,20.9105,VALID,239,VALID,0,
2013-11-30, 08:59:04,VALID,918.25,VALID,0,VALID,97.1986,VALID,325.547,VALID,20.9495,VALID,239,VALID,0,
2013-11-30, 09:00:04,VALID,918.251,VALID,0,VALID,97.2214,VALID,325.976,VALID,20.8714,VALID,239,VALID,0,
2013-11-30, 09:01:04,VALID,918.269,VALID,0,VALID,97.229,VALID,322.216,VALID,20.891,VALID,239,VALID,0,
2013-11-30, 09:02:04,VALID,918.263,VALID,0,VALID,97.229,VALID,315.77,VALID,20.8925,VALID,239,VALID,0,
2013-11-30, 09:03:04,VALID,918.23,VALID,0,VALID,97.1833,VALID,304.381,VALID,20.9105,VALID,239,VALID,0,
2013-11-30, 09:04:04,VALID,918.258,VALID,0,VALID,97.2138,VALID,301.05,VALID,20.8519,VALID,239,VALID,0,
2013-11-30, 09:05:04,VALID,918.217,VALID,0,VALID,97.2214,VALID,304.811,VALID,20.8699,VALID,239,VALID,0,
2013-11-30, 09:06:04,VALID,918.203,VALID,0,VALID,97.1986,VALID,317.703,VALID,20.93,VALID,239,VALID,0,
2013-11-30, 09:07:04,VALID,918.206,VALID,0,VALID,97.2062,VALID,338.332,VALID,20.9495,VALID,239,VALID,0,
2013-11-30, 09:08:04,VALID,918.175,VALID,0,VALID,97.1833,VALID,355.845,VALID,21.0275,VALID,239,VALID,0,
2013-11-30, 09:09:04,VALID,918.166,VALID,0,VALID,97.1909,VALID,372.928,VALID,21.086,VALID,239,VALID,0,
2013-11-30, 09:10:04,VALID,918.144,VALID,0,VALID,97.1528,VALID,387.97,VALID,21.1266,VALID,239,VALID,0,
2013-11-30, 09:11:04,VALID,918.141,VALID,0,VALID,97.1528,VALID,392.053,VALID,21.1836,VALID,218,VALID,0,
2013-11-30, 09:12:04,VALID,918.138,VALID,0,VALID,97.1604,VALID,392.16,VALID,21.2047,VALID,229,VALID,0,
2013-11-30, 09:13:04,VALID,918.163,VALID,0,VALID,97.1452,VALID,379.912,VALID,21.1852,VALID,237,VALID,0,
2013-11-30, 09:14:04,VALID,918.099,VALID,0,VALID,97.1223,VALID,370.242,VALID,21.2437,VALID,223,VALID,0,
2013-11-30, 09:15:04,VALID,918.133,VALID,0,VALID,97.069,VALID,368.738,VALID,21.3786,VALID,206,VALID,0,
2013-11-30, 09:16:04,VALID,918.126,VALID,0,VALID,97.0994,VALID,373.788,VALID,21.4583,VALID,226,VALID,0,
2013-11-30, 09:17:04,VALID,918.086,VALID,0,VALID,97.0842,VALID,386.896,VALID,21.4973,VALID,224,VALID,0,
2013-11-30, 09:18:04,VALID,918.057,VALID,0,VALID,97.008,VALID,407.309,VALID,21.6908,VALID,224,VALID,0,
2013-11-30, 09:19:04,VALID,918.051,VALID,0,VALID,97.008,VALID,431.376,VALID,21.8062,VALID,217,VALID,0,
2013-11-30, 09:20:04,VALID,918.043,VALID,0,VALID,97.0156,VALID,475.642,VALID,21.7883,VALID,241,VALID,0,
2013-11-30, 09:21:04,VALID,918.02,VALID,0,VALID,97.0003,VALID,510.668,VALID,21.8062,VALID,242,VALID,0,
2013-11-30, 09:22:04,VALID,918.023,VALID,0,VALID,96.9622,VALID,469.84,VALID,21.9038,VALID,242,VALID,0,
2013-11-30, 09:23:04,VALID,918.013,VALID,0,VALID,96.947,VALID,438.252,VALID,21.9038,VALID,242,VALID,0,
2013-11-30, 09:24:04,VALID,918.023,VALID,0,VALID,96.9089,VALID,391.301,VALID,22.0208,VALID,242,VALID,0,
2013-11-30, 09:25:04,VALID,918.002,VALID,0,VALID,96.8707,VALID,352.407,VALID,22.0615,VALID,280,VALID,0,
2013-11-30, 09:26:04,VALID,917.981,VALID,0,VALID,96.8403,VALID,331.456,VALID,22.2371,VALID,297,VALID,0,
2013-11-30, 09:27:04,VALID,917.994,VALID,0,VALID,96.8326,VALID,334.572,VALID,22.2371,VALID,305,VALID,0,
2013-11-30, 09:28:04,VALID,917.984,VALID,0,VALID,96.7793,VALID,335.646,VALID,22.2957,VALID,326,VALID,0,
2013-11-30, 09:29:04,VALID,917.961,VALID,0,VALID,96.7488,VALID,331.778,VALID,22.4908,VALID,342,VALID,0,
2013-11-30, 09:30:04,VALID,917.982,VALID,0,VALID,96.7335,VALID,327.481,VALID,22.5103,VALID,104,VALID,0,
2013-11-30, 09:31:04,VALID,917.98,VALID,0,VALID,96.6878,VALID,335.216,VALID,22.4306,VALID,113,VALID,0,
2013-11-30, 09:32:04,VALID,917.993,VALID,0,VALID,96.6039,VALID,366.482,VALID,22.4111,VALID,113,VALID,0,
2013-11-30, 09:33:04,VALID,917.994,VALID,0,VALID,96.5582,VALID,355.308,VALID,22.5477,VALID,21,VALID,0,
2013-11-30, 09:34:04,VALID,917.984,VALID,0,VALID,96.2533,VALID,344.241,VALID,22.4713,VALID,14,VALID,0,
2013-11-30, 09:35:04,VALID,917.975,VALID,0,VALID,96.0017,VALID,352.729,VALID,22.372,VALID,17,VALID,0,
2013-11-30, 09:36:04,VALID,917.974,VALID,0,VALID,95.9483,VALID,337.58,VALID,22.4306,VALID,20,VALID,0,
2013-11-30, 09:37:04,VALID,917.973,VALID,0,VALID,95.6739,VALID,350.58,VALID,22.4891,VALID,20,VALID,0,
2013-11-30, 09:38:04,VALID,917.951,VALID,0,VALID,94.8048,VALID,405.268,VALID,22.4501,VALID,44,VALID,0,
2013-11-30, 09:39:04,VALID,917.937,VALID,0,VALID,94.1644,VALID,384.639,VALID,22.4501,VALID,41,VALID,0,
2013-11-30, 09:40:04,VALID,917.973,VALID,0,VALID,94.0043,VALID,385.284,VALID,22.4306,VALID,82,VALID,0,
2013-11-30, 09:41:04,VALID,917.927,VALID,0,VALID,94.6447,VALID,385.177,VALID,22.5281,VALID,63,VALID,0,
2013-11-30, 09:42:04,VALID,917.96,VALID,0,VALID,92.9066,VALID,385.606,VALID,22.5672,VALID,335,VALID,0,
2013-11-30, 09:43:04,VALID,917.933,VALID,0,VALID,92.9218,VALID,359.391,VALID,22.5867,VALID,335,VALID,0,
2013-11-30, 09:44:04,VALID,917.931,VALID,0,VALID,92.1976,VALID,333.82,VALID,22.5867,VALID,335,VALID,0,
2013-11-30, 09:45:04,VALID,917.927,VALID,0,VALID,90.9855,VALID,320.282,VALID,22.5477,VALID,246,VALID,0,
2013-11-30, 09:46:04,VALID,917.93,VALID,0,VALID,90.4823,VALID,317.381,VALID,22.5086,VALID,245,VALID,0,
2013-11-30, 09:47:04,VALID,917.893,VALID,0,VALID,89.6514,VALID,317.703,VALID,22.4696,VALID,247,VALID,0,
2013-11-30, 09:48:04,VALID,917.924,VALID,0,VALID,89.9411,VALID,340.374,VALID,22.5086,VALID,247,VALID,0,
2013-11-30, 09:49:04,VALID,917.921,VALID,0,VALID,90.9169,VALID,324.472,VALID,22.6045,VALID,246,VALID,0,
2013-11-30, 09:50:04,VALID,917.918,VALID,0,VALID,90.4518,VALID,333.712,VALID,22.7233,VALID,247,VALID,0,
2013-11-30, 09:51:04,VALID,917.936,VALID,0,VALID,89.6285,VALID,379.052,VALID,22.8404,VALID,265,VALID,0,
2013-11-30, 09:52:04,VALID,917.943,VALID,0,VALID,89.8496,VALID,408.061,VALID,22.9185,VALID,258,VALID,0,
2013-11-30, 09:53:04,VALID,917.968,VALID,0,VALID,88.8128,VALID,393.02,VALID,22.9948,VALID,265,VALID,0,
2013-11-30, 09:54:04,VALID,917.942,VALID,0,VALID,86.5563,VALID,373.465,VALID,22.9753,VALID,246,VALID,0,
2013-11-30, 09:55:04,VALID,917.968,VALID,0,VALID,86.4572,VALID,394.094,VALID,22.9167,VALID,262,VALID,0,
2013-11-30, 09:56:04,VALID,917.974,VALID,0,VALID,88.4469,VALID,419.343,VALID,22.9185,VALID,264,VALID,0,
2013-11-30, 09:57:04,VALID,917.975,VALID,0,VALID,89.415,VALID,420.525,VALID,23.016,VALID,297,VALID,0,
2013-11-30, 09:58:04,VALID,917.971,VALID,0,VALID,89.3312,VALID,467.476,VALID,23.1119,VALID,290,VALID,0,
2013-11-30, 09:59:04,VALID,917.996,VALID,0,VALID,89.072,VALID,442.98,VALID,23.268,VALID,288,VALID,0,
2013-11-30, 10:00:04,VALID,917.98,VALID,0,VALID,85.7863,VALID,452.972,VALID,23.2875,VALID,271,VALID,0,
2013-11-30, 10:01:04,VALID,917.96,VALID,0,VALID,85.8778,VALID,413.111,VALID,23.307,VALID,272,VALID,0,
2013-11-30, 10:02:04,VALID,917.96,VALID,0,VALID,85.2298,VALID,383.565,VALID,23.2875,VALID,272,VALID,0,
2013-11-30, 10:03:04,VALID,917.966,VALID,0,VALID,85.8397,VALID,364.548,VALID,23.3265,VALID,320,VALID,0,
2013-11-30, 10:04:04,VALID,917.963,VALID,0,VALID,84.4827,VALID,370.994,VALID,23.3088,VALID,264,VALID,0,
2013-11-30, 10:05:04,VALID,917.934,VALID,0,VALID,85.8625,VALID,391.408,VALID,23.2893,VALID,258,VALID,0,
2013-11-30, 10:06:04,VALID,917.973,VALID,0,VALID,83.8881,VALID,426.112,VALID,23.2485,VALID,302,VALID,0,
2013-11-30, 10:07:04,VALID,917.962,VALID,0,VALID,85.9616,VALID,498.849,VALID,23.2094,VALID,273,VALID,0,
2013-11-30, 10:08:04,VALID,917.937,VALID,0,VALID,84.2692,VALID,544.942,VALID,23.229,VALID,271,VALID,0,
2013-11-30, 10:09:04,VALID,917.924,VALID,0,VALID,84.7953,VALID,646.796,VALID,23.2485,VALID,254,VALID,0,
2013-11-30, 10:10:04,VALID,917.895,VALID,0,VALID,84.0482,VALID,590.282,VALID,23.3478,VALID,254,VALID,0,
2013-11-30, 10:11:04,VALID,917.902,VALID,0,VALID,82.4244,VALID,524.957,VALID,23.4259,VALID,288,VALID,0,
2013-11-30, 10:12:04,VALID,917.881,VALID,0,VALID,82.5159,VALID,625.737,VALID,23.465,VALID,288,VALID,0,
2013-11-30, 10:13:04,VALID,917.898,VALID,0,VALID,81.2809,VALID,502.073,VALID,23.4845,VALID,256,VALID,0,
2013-11-30, 10:14:04,VALID,917.911,VALID,0,VALID,81.6315,VALID,492.51,VALID,23.465,VALID,262,VALID,0,
2013-11-30, 10:15:04,VALID,917.861,VALID,0,VALID,81.5934,VALID,422.996,VALID,23.465,VALID,262,VALID,0,
2013-11-30, 10:16:04,VALID,917.858,VALID,0,VALID,81.6163,VALID,429.979,VALID,23.5235,VALID,263,VALID,0,
2013-11-30, 10:17:04,VALID,917.868,VALID,0,VALID,79.6723,VALID,452.757,VALID,23.5626,VALID,263,VALID,0,
2013-11-30, 10:18:04,VALID,917.837,VALID,0,VALID,78.8414,VALID,474.997,VALID,23.504,VALID,307,VALID,0,
2013-11-30, 10:19:04,VALID,917.813,VALID,0,VALID,83.5069,VALID,466.832,VALID,23.543,INVALID,360,VALID,0,
2013-11-30, 10:20:04,VALID,917.818,VALID,0,VALID,81.5629,VALID,493.692,VALID,23.6016,VALID,16,VALID,0,
2013-11-30, 10:21:04,VALID,917.806,VALID,0,VALID,83.2782,VALID,478.65,VALID,23.7382,VALID,8,VALID,0,
2013-11-30, 10:22:04,VALID,917.787,VALID,0,VALID,81.7001,VALID,469.948,VALID,23.8731,VALID,20,VALID,0,
2013-11-30, 10:23:04,VALID,917.805,VALID,0,VALID,80.5033,VALID,447.063,VALID,24.0097,VALID,339,VALID,0,
2013-11-30, 10:24:04,VALID,917.781,VALID,0,VALID,79.5351,VALID,451.253,VALID,24.0701,VALID,359,VALID,0,
2013-11-30, 10:25:04,VALID,917.731,VALID,0,VALID,80.4423,VALID,446.418,VALID,24.1482,VALID,350,VALID,0,
2013-11-30, 10:26:04,VALID,917.727,VALID,0,VALID,78.4145,VALID,445.988,VALID,24.1873,VALID,310,VALID,0,
2013-11-30, 10:27:04,VALID,917.702,VALID,0,VALID,79.8782,VALID,450.393,VALID,24.2263,VALID,304,VALID,0,
2013-11-30, 10:28:04,VALID,917.705,VALID,0,VALID,78.2315,VALID,459.096,VALID,24.2068,VALID,310,VALID,0,
2013-11-30, 10:29:04,VALID,917.683,VALID,0,VALID,81.1131,VALID,472.741,VALID,24.2263,VALID,313,VALID,0,
2013-11-30, 10:30:04,VALID,917.712,VALID,0,VALID,78.605,VALID,454.584,VALID,24.3825,VALID,328,VALID,0,
2013-11-30, 10:31:04,VALID,917.685,VALID,0,VALID,79.5046,VALID,439.649,VALID,24.4801,VALID,306,VALID,0,
2013-11-30, 10:32:04,VALID,917.72,VALID,0,VALID,77.0804,VALID,490.899,VALID,24.4997,VALID,306,VALID,0,
2013-11-30, 10:33:04,VALID,917.693,VALID,0,VALID,77.7588,VALID,478.221,VALID,24.5368,VALID,329,VALID,0,
2013-11-30, 10:34:04,VALID,917.659,VALID,0,VALID,77.9418,VALID,484.13,VALID,24.5173,VALID,359,VALID,0,
2013-11-30, 10:35:04,VALID,917.647,VALID,0,VALID,77.5454,VALID,547.628,VALID,24.6345,VALID,349,VALID,0,
2013-11-30, 10:36:04,VALID,917.668,VALID,0,VALID,77.8656,VALID,531.511,VALID,24.7516,VALID,338,VALID,0,
2013-11-30, 10:37:04,VALID,917.655,VALID,0,VALID,74.6104,VALID,568.686,VALID,24.8688,VALID,317,VALID,0,
2013-11-30, 10:38:04,VALID,917.647,VALID,0,VALID,74.1606,VALID,567.289,VALID,24.7516,VALID,333,VALID,0,
2013-11-30, 10:39:04,VALID,917.575,VALID,0,VALID,74.679,VALID,469.41,VALID,24.654,VALID,30,VALID,0,
2013-11-30, 10:40:04,VALID,917.633,VALID,0,VALID,77.37,VALID,461.567,VALID,24.5368,VALID,32,VALID,0,
2013-11-30, 10:41:04,VALID,917.592,VALID,0,VALID,75.5709,VALID,600.166,VALID,24.5564,VALID,308,VALID,0,
2013-11-30, 10:42:04,VALID,917.554,VALID,0,VALID,74.8391,VALID,972.88,VALID,24.5173,VALID,294,VALID,0,